CAPE
2246 2591 2590 2064 1903 2053 2261 2431 2277 2255 2215 1900 1683 1489 1486 1666 2465 2447 2631 2545 2955 3031 2908 2974 2994 2808 2765 2976 3139 2899 2918 3120 2958 2949 2738 2585 2499 2992 3177 2486 2536 2227 2253 2518 2331 2161 2096 2317 2517 2452 2473 2433 2427 2324 2444 2744 2747 2852 2810 2661 2496 2597 2771 2798 2822 2669 2677 2315 2517 2400 2494 2524 2376 2295 2447 2634 2608 2238 2501 2298 2302 2328 1864 2610 2385
2295 2374 2378 2152 1800 2185 2351 2468 2474 2471 2546 2474 2154 1917 2147 2585 2838 2774 2785 2901 2806 2455 2536 2530 3000 2988 3058 2948 3056 3054 3046 3027 3016 3030 2906 2919 2502 2399 2537 1931 2220 2070 2121 2330 2374 2307 2305 2426 2558 2654 2511 2543 2529 2411 2637 2462 2724 2829 2659 2429 2194 2600 2654 2675 2692 2855 2798 2435 2852 2922 2553 2746 2540 2666 2575 2643 2436 2645 2605 2448 2298 2074 2773 2152 2503
2042 2130 2086 2116 1889 2105 2407 2444 2466 2549 2661 2649 2687 2732 2893 2933 2933 2905 2909 3004 2930 2737 2833 2780 2811 2703 2929 2933 2908 2740 3125 2953 2809 2838 2948 2926 2758 2478 2076 2063 2071 2043 2087 2389 2399 2014 2368 2427 2321 2530 2574 2543 2552 2448 2457 2418 2735 2846 2803 2494 2389 2737 2374 2650 2674 2823 2982 2892 2779 3136 2942 2892 2502 2311 2762 2587 2638 2879 2836 2818 2513 2257 2722 2513 2667
1986 2088 1855 2044 2074 2014 2145 2514 2481 2641 2759 2664 2698 2644 2522 2605 2849 2931 2920 2909 2802 2806 2913 2897 2962 2996 2929 2782 3096 2961 3054 2920 2651 2578 2602 2690 2784 2630 2397 1889 1671 1933 2039 2138 2187 2506 2478 2638 2505 2685 2574 2412 2374 2940 3011 3037 3251 2992 2840 2790 2689 2811 2931 2793 2836 2904 2942 2777 2785 2613 1964 3179 2909 2681 2548 2352 2687 2859 2990 2726 2622 2647 2574 2582 2366
1929 1894 1587 1793 2125 2153 2144 2473 2530 2868 2694 2650 2720 2765 2733 2678 2761 2803 2830 2592 2674 2558 2663 2754 2455 2272 2812 2736 2591 2620 2750 2716 2523 2439 2356 2311 2513 2250 2564 2061 2019 2050 2061 2482 2314 2398 2434 2514 2771 2536 2386 2308 2300 2389 2602 2800 3298 3486 3184 2976 2735 2722 2792 2580 2902 2984 3010 3050 3012 2828 3081 2464 2816 2582 2202 2012 2400 2500 2647 2522 2495 2182 2452 2499 2696
1800 1889 1749 1682 1795 2299 2090 2469 2490 2730 2747 2771 2807 2822 2754 2750 2746 2699 2738 2554 2601 2631 2250 2415 2454 2375 2521 2568 2538 2595 2486 2541 2602 2495 2258 2494 2579 2363 2648 2309 2402 2101 2190 2118 2330 2394 2310 2407 2734 2413 2276 2229 2358 2490 2581 2836 3645 3748 3050 2958 2936 2901 3052 3319 3106 3126 3115 2860 2853 2888 2853 2950 2854 2537 2200 1928 2084 2545 2448 2292 2199 2224 2456 2469 2488
1927 1915 1741 1720 1958 2079 2213 2425 2766 2694 2624 2694 2700 2775 3022 2952 2695 2529 2326 2347 2368 2326 2313 2345 2129 2330 2240 2032 1995 2284 2388 2447 2420 2312 2482 2279 2570 2439 2350 2428 2392 2421 2375 2164 2112 2295 2142 2210 2208 2234 2152 2211 2229 2478 2554 2452 2773 2942 2970 2785 2984 3024 3036 2807 2980 3214 3039 3004 2781 2872 2700 2743 2763 2886 2492 2435 2623 2446 2372 2347 2340 2085 2091 2124 2043
1766 1747 1585 1614 1870 2122 2400 2700 2603 2529 2571 2551 2723 2788 2868 2702 2822 2436 2325 2657 2512 2499 2496 2437 2226 2062 1812 1518 1589 1824 1813 2290 2339 2434 2384 2443 2411 2476 2271 2132 2308 2307 2346 2403 2362 2340 2402 2262 2070 2069 2152 2216 2167 2470 2624 2670 2540 2492 2752 2648 2803 3024 2992 2850 2782 3004 2927 3314 3182 2897 2808 2756 2405 2748 2537 1960 2545 2582 2431 2574 2530 2352 2139 2120 1953
1805 1662 1563 1712 1838 2400 2560 2544 2618 2640 2705 2655 2764 2754 2718 2617 2518 2411 2304 2202 2152 2083 2068 1931 1694 1518 1230 1409 1392 1523 1681 1880 2136 2363 2214 2329 2362 2183 1935 2288 2084 2208 2254 2298 2128 2608 2638 1897 2099 2037 2262 2324 2482 2478 2651 2291 2251 2394 2357 2450 2816 2857 2739 2600 2799 3057 3137 3250 3239 3075 2848 2818 2597 2705 2333 2224 2035 2019 1813 2211 2429 2416 2290 2210 1961
1640 1739 1756 1778 1791 2618 2641 2627 2686 2642 2584 2534 2595 2526 2271 1947 2040 1993 2109 2077 2082 2114 2090 1917 1538 1616 1420 1338 1286 1309 1410 1700 2105 2084 2162 2043 2158 2137 2355 2115 1981 2086 1968 2101 2375 2299 2453 2401 2271 2376 2318 2330 2318 2358 2054 2422 2318 2416 2322 2577 2760 2864 2718 2623 2642 2901 3114 3138 2938 3017 3221 2218 2232 2539 2678 2602 2376 2400 2509 2472 2529 2425 2321 2247 1951
1771 1975 1907 1593 1742 2534 2560 2601 2478 2499 2621 2496 2347 2119 1928 1727 1758 1820 1814 1796 1886 1904 1967 1938 1825 1539 1508 1419 1584 1574 1485 1382 1696 1851 1973 2088 2010 2197 2131 1996 1966 1864 1790 1472 1693 1963 1916 2514 2572 2476 2318 2148 2504 2568 2761 2534 2496 2665 2899 2880 2876 2791 2467 2286 2204 3192 3140 3075 2869 2325 2093 2474 2515 2610 2531 2491 2304 2341 2365 2330 2295 2312 2186 2142 2177
2056 2005 1904 1692 2526 2537 2553 2638 2609 2417 2326 2010 1892 1761 1747 1601 1778 1901 1888 1854 1674 1888 1953 1849 1837 1776 1846 1744 1647 1461 1537 1656 1613 1835 2003 2158 2145 2037 2026 1781 1537 1597 1371 1527 1616 1816 1969 2521 2728 2601 2582 2230 2336 2449 2464 2400 2725 3023 3018 2980 2896 2658 2294 1921 2636 2864 3145 3274 3132 2703 2531 2465 2501 2395 2255 2374 2263 2192 2120 2219 2184 2119 2208 2207 2202
1720 1711 1109 1513 2002 2633 2580 2352 2467 2333 1862 1809 1924 1750 1812 1783 1889 1764 1631 1857 1904 1749 1747 1710 1933 1751 1479 1576 1657 1664 1814 1711 1683 1642 1906 2030 1832 1844 1958 1733 1697 1599 1376 1436 1740 1821 1819 1584 2260 2423 2382 2416 2540 2508 2565 2680 2895 2929 2816 2839 2926 2557 2074 1390 1902 2278 3059 3385 2907 2668 2674 2538 2307 2538 2004 1924 2068 2262 2274 2245 2172 2115 2097 2102 2172
1464 1554 1513 1722 1841 2772 2252 2384 2236 1940 1851 1759 1812 1806 1954 1754 1987 1792 1789 1877 1916 2059 1886 1924 1816 1762 1517 1579 1594 1820 1679 1847 1850 1934 1964 1882 1987 1937 1944 1457 1553 1725 1550 1498 1546 1524 1582 2072 2225 2396 2443 2318 2292 2494 2485 2804 2854 3034 2761 2611 2284 2093 1704 1326 1388 1909 2199 2572 2987 2754 2749 2472 2234 2351 1919 1984 2033 2151 2091 2096 2131 2133 1959 1962 2272
1561 1656 1595 1742 1674 2410 2081 1922 1955 1926 1905 1895 1809 1844 2103 2017 1984 1869 1666 1866 1750 1894 1570 1483 1583 1551 1657 1505 1364 1708 1738 1642 1743 1965 1850 1837 1866 1888 1749 1780 1881 1866 1897 1896 1810 1542 1506 2221 2344 2337 2172 2567 2542 2356 2365 2787 2826 2818 2409 2317 2119 1757 1132 1004 1078 1430 1407 1895 1998 2050 2518 2201 2162 1884 1941 2031 2134 2241 2130 1963 2087 2129 1855 2298 2370
1546 1454 1394 1661 2056 2059 2094 1819 1664 1846 2029 1965 2024 1983 2258 1945 1749 2136 2077 1814 1705 1525 1495 1242 1229 975 946 1331 1608 1528 1514 1457 1596 1604 1826 1831 1855 1935 1788 1782 1785 2004 1906 1844 1729 1911 2043 2056 2220 2283 2328 2527 2548 2621 2433 2734 2653 2481 2409 2079 2153 1864 1352 1034 1178 1094 1123 1145 1827 1829 1732 2159 2080 1931 1968 2101 2187 2200 2179 2125 2070 2139 2160 2136 2134
1414 1378 1335 1722 1553 1764 2086 2220 1676 1933 2180 2176 1925 2015 2077 1799 1928 2124 1836 1788 1795 1444 1063 1210 1225 1326 1199 1253 1519 1430 1619 1591 1607 1648 1770 1754 1800 1820 1819 1868 1829 1932 1836 2061 1921 1781 2248 2105 2321 2378 2412 2328 2504 2523 2570 2621 2636 2585 2485 2263 2164 2172 1733 1132 1075 948 1147 1586 1299 1355 1386 1710 1999 1920 1958 2222 2092 2076 2124 2022 1954 1972 2093 2107 2186
1511 1361 1414 1968 2050 1673 1737 1990 2140 2319 2737 2313 1796 1912 1987 1992 1928 1976 2042 1940 1308 1167 1273 1358 1161 1081 1308 1496 1473 1336 1628 1729 1654 1708 1787 1736 1820 1789 1955 1989 1931 1872 1771 2009 2074 2052 2068 2087 1793 2111 2227 2428 2313 2382 2507 2664 2698 2640 2563 2456 2305 2258 1922 1211 1010 1003 1129 1049 1089 1321 1451 2263 2073 2072 2083 2166 2053 2082 2040 2107 2145 2132 2106 2171 2193
1257 1004 1072 1878 1931 1833 1898 2111 2162 1950 2637 2988 2013 1878 1720 1881 2117 2180 2042 1732 1605 1506 1406 1230 1208 1464 1236 1430 1509 1345 1653 1660 1770 1791 1796 1827 1992 1850 1902 2108 1941 2118 2008 1882 2078 2033 1906 2066 1959 2216 2355 2442 2262 2286 2476 2492 2613 2750 2631 2631 2473 2266 2038 1283 1266 1204 1149 977 903 1123 1563 2262 2225 2132 2102 2174 2044 2100 2090 2142 2121 2097 2063 2126 2094
1252 904 870 1608 2041 2084 2368 2410 2586 2410 2568 2181 2413 2841 1953 1814 1662 1757 1798 1596 1508 1505 1549 1395 1402 1422 1429 1578 1580 1789 1541 1569 1748 1682 1915 2030 1981 1903 1866 2160 2071 2136 1997 1867 1934 2019 2038 1965 1789 2006 2214 2275 2293 2184 2211 2304 2410 2546 2314 2578 2325 2432 1492 1393 1436 1353 1139 1165 1074 1208 2235 2120 2117 2224 2168 2156 2164 2154 2192 2162 2166 2160 2100 2042 1887
936 753 1074 1425 2126 2402 2574 2426 2514 2416 2471 2709 2763 2825 2368 2258 1656 1817 2021 1864 1506 1490 1479 1641 1529 1422 1593 1577 1618 1766 1768 1781 2110 2021 1933 2150 2043 2103 1865 2010 2219 2258 1932 1987 1959 2058 2048 1813 1712 1953 2083 2171 2311 2380 2362 2477 2473 2496 2479 2422 2067 1445 1380 1281 1129 1308 1243 1415 1430 1667 2309 2170 2145 2194 2190 2190 2154 2211 2185 2068 1976 1890 1917 1956 1797
769 651 921 1428 2079 2457 2571 2476 2548 2735 2891 2740 2954 2921 1858 2535 2680 2510 2572 2450 1655 1404 1612 2247 1637 1485 1560 1808 1989 1720 1635 1872 1939 1743 2022 1971 2069 1946 2006 1934 2100 2249 2077 1952 1979 2007 2036 1964 1807 1936 1990 2170 2239 2679 2630 2641 2644 2610 2585 2074 2461 1302 1339 1148 940 995 1011 1410 1558 2332 2315 2210 2070 2143 2213 2232 2100 2154 2130 2192 2046 1929 1946 1888 1866
560 508 868 1038 2048 2311 2130 2110 2473 2826 2654 2849 2800 3105 3072 2956 2679 1816 2515 2445 2000 2329 1925 1792 2514 2670 2711 2229 1986 1658 1556 1581 2164 2097 2146 2070 1888 1901 2038 2069 2054 2124 2424 2026 2066 2057 1814 1880 1977 2130 2233 2308 3049 3036 2434 2711 2481 2458 2489 2767 1545 1132 1441 1229 932 854 1004 1287 1726 2534 2400 2278 2219 2125 2114 2145 2100 2033 2141 2166 2137 2158 2128 2093 1777
396 483 779 1071 1611 2176 2024 1684 2237 2726 2647 2601 2673 2874 3131 3306 2886 2591 2348 2331 2157 2306 2508 2479 2631 2765 1475 2391 2503 2123 1916 1893 1598 1775 2021 2098 2033 2008 2162 2128 2306 2269 2131 2011 1922 1708 1782 1809 1790 1906 2258 2571 2690 3081 2152 2354 2691 2706 1802 1505 1235 1426 1178 919 795 938 1022 1524 2080 2701 2328 2461 2319 2181 2175 2155 2231 2180 2130 2127 2322 2266 2184 2216 1835
608 532 764 999 1467 2060 1661 1778 1960 2512 2651 2575 2630 2768 3108 2763 2514 2597 2382 2136 1953 2032 2349 2488 2591 2740 2335 1465 2631 2530 1934 1776 1753 2019 1872 2446 2562 2507 2612 2587 2085 2102 1794 1732 1742 1494 1700 1920 1811 1859 2447 2402 1772 1582 1308 1254 1161 890 831 849 765 824 741 858 981 1034 1350 1735 2480 2846 2572 2408 2468 2404 2466 2355 2475 2324 2266 2274 2415 2288 2376 2308 2299
680 582 666 1026 1346 1554 1671 1630 1476 2454 2550 2558 2587 2572 2857 2660 2793 2668 2441 2093 1718 1680 2006 2332 2576 2714 2655 1437 1652 1652 1425 1626 1856 2454 2720 2973 2838 1975 2129 2339 2237 2290 1854 1407 1461 1405 1239 1555 1862 1888 2053 1494 1449 1554 1375 1131 936 830 1025 1062 778 896 743 817 920 1348 1489 1726 2202 2739 2623 2585 2501 2359 2469 2665 2487 2451 2503 2280 2211 2236 2441 2311 2357
644 778 725 1097 1218 1332 1723 1505 1320 1977 2424 2860 2685 2821 2720 2738 2702 2565 2369 2008 1804 1525 1746 2439 2760 2847 2502 2460 2001 1892 1776 1948 1634 1862 2296 2408 2744 2590 2298 1682 2010 1859 1577 1369 1321 1334 1487 1801 2104 1752 1440 1134 1285 1605 1440 1391 1109 854 1169 1093 1280 896 919 927 878 1294 1492 1785 2519 2508 2759 2759 2492 2486 2505 2549 2637 2591 2684 2528 2323 2326 2328 2277 2299
799 670 680 1074 1188 1220 1588 1544 1430 1483 1747 2650 2657 2642 2720 2574 2206 2316 2177 2084 1818 1716 1542 1965 2735 2820 2691 2547 2443 2416 2454 2020 1796 2184 2504 2366 2226 2193 2219 1302 1337 1695 1476 1444 1490 1915 1972 2026 1952 1998 1899 1612 1338 1255 1160 1335 1191 871 964 1182 1042 1187 1095 882 688 966 1201 1411 2221 2330 2921 2508 2515 2452 2532 2387 2676 2399 2641 2560 2457 2334 2292 2294 2216
839 506 757 994 1158 1213 1602 1416 1415 1441 1330 1449 1634 2117 2670 2488 2327 2332 2200 2156 2060 1895 1896 1927 1872 2129 2275 2200 2058 1809 1680 1837 1942 1999 1939 1792 1824 1737 1591 1636 1687 2026 2260 2066 2161 2102 1953 1842 1934 1799 1786 1891 1302 1216 1251 968 964 979 807 1070 800 1169 1166 1097 1133 939 866 1085 1692 2972 2584 2550 2446 2550 2433 2316 2304 2396 2348 2350 2276 2112 2272 2229 2084
368 480 655 1076 1116 1185 1306 1344 1334 1305 1154 1154 1403 1671 2544 2520 2245 2155 2001 1862 1868 1857 1996 1819 1828 1804 1936 2202 2051 1711 1448 1488 1625 1684 1633 1733 1750 1526 1312 1512 2070 2014 1953 2247 2207 1872 1729 1747 1973 2101 2312 2437 2032 1635 1907 1062 812 1272 998 1141 1093 1034 1396 1399 1452 1440 1119 1000 1146 2471 2118 2587 2709 2690 2572 2486 2401 2492 2420 2386 2323 2366 2438 2288 2348
273 392 566 1026 1186 1095 1094 1313 1486 1626 1326 1127 1346 1502 2009 2084 1952 1868 1813 1631 1765 1768 1674 1639 1668 1770 2094 2201 2267 1923 1490 1376 1685 1635 1562 1598 1636 1500 1289 1566 1859 2003 1822 1974 1964 1952 2305 2554 2764 2665 2632 2768 2092 1680 1768 1282 1108 1042 1078 1133 1010 1053 1283 1248 1386 1526 1296 977 1304 1628 3082 2186 2664 2699 2683 2490 2585 2520 2480 2494 2351 2405 2446 2398 2393
127 352 632 1029 879 1213 1218 1159 1411 1499 1344 1229 1441 1343 1588 1944 1917 1762 1646 1647 1888 1789 1753 1530 1637 1788 1931 2042 2061 1776 1658 1572 1662 1536 1481 1562 1607 1814 1891 1778 1629 1985 1843 1712 2243 2750 2753 2726 3014 3353 3328 2819 1968 1782 1418 1038 1077 958 929 904 1089 1076 1185 1352 1183 992 1165 1404 1832 1523 1873 2909 2354 2733 2798 2834 2842 2669 2610 2539 2529 2567 2622 2690 2704
58 215 660 706 788 1262 1322 1253 1422 1700 1412 1160 1254 1206 1404 1450 1662 1781 2016 1767 1776 1704 1755 1660 1747 1860 1970 1941 2089 2211 1837 1850 1913 1726 1485 1445 1576 1490 1617 1508 1474 1943 2229 2505 2723 3156 2996 3011 2804 3492 3026 1721 1233 1224 1227 807 952 749 847 1006 1078 1042 1116 1202 1228 1455 1450 1743 1762 1763 1593 1867 3207 2909 2678 2947 2761 2788 2834 2766 2825 2967 3071 3028 3011
77 276 437 552 959 1521 1419 1533 1464 1477 1396 1175 1290 1321 1340 1394 1529 1763 2216 2058 1852 1716 1646 1768 1798 1751 1847 2054 2153 2220 2008 2130 2112 1818 1417 1377 1653 1551 1689 1667 2012 2212 2273 2757 2702 2862 2842 3009 2686 2680 1984 1767 1159 1241 1005 990 759 871 943 914 1027 1177 1349 1306 1346 1148 1716 1530 1340 1696 1798 1988 2159 2549 3624 2937 2674 2703 2827 2989 3187 3283 3367 3305 3225
70 262 353 561 1043 1461 1401 1713 1508 1596 1381 1434 1308 1376 1423 1309 1506 1598 1855 2449 1788 1533 1378 1560 1640 1632 1601 1978 2215 2374 2307 2396 2210 2177 1717 1506 1390 1542 1749 1848 1928 2031 2021 2645 3073 2769 2960 2786 2710 2356 2244 1746 1267 1250 1016 1031 1044 749 991 1176 1008 1243 1350 1141 1437 1194 1353 1676 1899 1555 1803 1826 1776 2060 2495 3151 3498 2889 3064 2953 3024 2972 2857 3055 3366
18 272 352 613 1006 1396 1473 1615 1468 1525 1504 1563 1393 1433 1388 1453 1516 1590 1734 1974 1688 1471 1328 1198 1315 1470 1407 1782 2338 2441 2346 2494 2497 2271 1790 1850 1608 1669 1882 2197 2497 2594 2749 2716 3399 2886 2939 3060 2746 2607 2543 1611 1350 1140 966 1110 1064 886 856 996 976 1269 1400 1399 1506 1527 1178 1574 1859 1803 2039 2074 2107 2130 1979 2324 2670 4418 2944 2989 2881 2815 3052 3157 3510
4 111 477 870 1189 1735 1395 1500 1478 1387 1536 1324 1642 1506 1606 1585 1574 1388 1460 1711 1577 1520 1456 1189 1124 1268 1336 1485 2266 2428 2412 2583 2625 2587 2037 1989 1914 1751 1908 2315 2742 2972 3033 3283 2966 2872 3160 2565 2831 2778 2931 2817 1480 1156 1159 1185 807 829 894 993 1012 1178 1403 1599 1596 1353 1291 1449 1416 1760 1588 1822 2049 1908 2625 2447 2552 3178 3594 3071 3348 3531 3555 3661 3696
15 77 600 1020 1374 1649 1262 1683 1603 1530 1616 1692 1761 1544 1575 1568 1602 1515 1730 1662 1681 1532 1585 1281 1184 1280 1515 1702 2290 2322 2510 2776 2810 2750 2693 2280 2178 2179 2405 2528 2928 3274 3529 3130 3304 2902 3023 2841 3334 3010 2998 3118 2007 1416 1410 1201 767 772 936 664 966 1259 1287 1482 1408 1333 1503 1292 1078 1487 1719 1680 2046 2121 2209 2440 2215 2321 3297 3781 2647 3264 3589 3944 3857
36 101 696 1258 1600 1610 1883 1878 1752 1652 1712 1631 1938 1669 1626 1698 1773 1776 1741 1786 2059 1892 1897 1843 1701 1268 1440 1946 2514 2229 2450 2743 2875 2936 2554 1962 2095 2262 2455 2918 3108 3440 3398 3121 2938 3188 3347 3229 3262 3421 3345 2914 2782 1940 1435 1322 817 861 647 758 751 944 1208 1091 1333 1434 1578 1415 1418 1377 1297 1762 1634 1663 2043 2536 2279 2620 2451 2904 3935 4149 5414 3403 4213
47 225 957 1393 1586 1766 2231 1942 2022 1789 1923 2058 1843 1651 1660 1565 1815 1939 1842 1986 2166 2308 2126 1994 1892 1794 1821 1838 2332 2334 2530 2597 2790 2865 2828 2287 2182 2123 2759 2731 3334 3492 3328 2918 3027 3340 3694 3959 3627 3642 3358 2807 1768 1360 1308 1313 958 755 714 722 830 1090 1411 1410 1359 1326 1269 1493 1418 1688 1460 1360 1614 1714 1895 2176 1979 2040 2362 3106 3287 3059 2888 4685 3401
490 734 1244 1472 1602 1916 2270 2190 2309 2197 2225 1881 1631 1601 1816 1936 2042 1702 1816 1748 2126 2359 2230 2246 1985 2017 1999 2024 2435 2301 2636 2702 2722 2725 2654 2571 2454 2530 2648 3216 3337 3562 3576 3334 3606 3450 3601 3703 3478 3534 3067 2238 1933 1280 1252 1255 989 667 1190 995 1039 1181 1124 1558 1485 1209 1039 1073 1080 1236 1229 1238 1199 1615 1764 1868 2258 2374 2324 3062 2850 2850 2842 3131 4838
1363 1449 1409 1454 1619 1584 2174 2335 2506 2607 2294 1694 1936 1954 2036 1976 1961 1973 1998 2123 2326 2292 2320 2220 2076 2453 2604 2714 2449 2343 2550 2670 2589 2818 2747 2572 2458 2482 2754 3558 3842 3688 3983 3773 3860 3528 3678 3916 3556 3990 2884 2426 1720 1286 1089 1111 818 957 1091 1007 1090 1186 1278 1343 1307 852 851 712 786 924 1198 1285 1164 1259 1461 1928 2545 2245 2221 2372 2659 2674 2757 3086 3069
1526 1635 1616 1542 1609 1526 2097 2670 2587 2648 2599 2336 2406 2408 2347 2411 2095 2232 2062 2005 1994 2037 2128 2201 2293 2117 2185 2374 2468 2622 2620 2498 2569 2603 2651 2648 2385 2492 2902 3547 3832 3669 4088 4221 4087 3626 4018 3622 3774 3186 2834 2060 1799 1670 1615 1579 696 999 1390 1207 1080 1127 1367 1161 954 782 628 641 728 797 919 912 826 1183 1358 1830 1568 2091 1660 1751 2360 2922 3247 3251 3062
1793 1629 1610 1627 1623 1618 1965 2816 2992 2804 2761 2934 2889 2755 2024 2068 2132 1833 2112 1926 1989 2356 2606 2507 2720 2401 2199 2365 2650 2695 2572 2244 2218 2173 2235 2555 2678 2903 3177 3428 3572 3922 3879 4152 3977 3814 3760 3980 3025 3318 3215 2233 1571 1344 1236 1455 1421 1269 1047 1293 1338 1250 787 1201 1115 801 406 471 708 471 489 732 909 1228 1210 1593 1177 1746 1883 2323 2769 3326 3420 3073 3053
1592 1697 1656 1639 1711 1655 1947 2506 3080 2936 3009 2937 2794 2798 2232 2028 2107 2169 2126 2086 2045 1984 2304 2449 2720 2655 2190 2152 2279 2713 2462 2183 2187 2206 2197 2491 2948 3243 3613 3600 3970 3861 3698 3716 3387 3190 3573 3370 3154 3642 3341 2884 1690 1340 1387 1370 1909 2367 1942 1414 913 1262 1215 995 866 760 789 428 410 518 556 878 1074 1203 1520 1230 1205 1573 1542 1909 2503 2943 3325 3805 3596
1349 1494 1401 1509 1546 1760 1894 2385 2785 2977 2867 3055 2728 2587 2082 1818 1920 1853 1697 1680 1839 1886 2322 2445 2352 1843 1832 1952 2244 2316 2179 2510 2401 2449 2502 2405 2897 3353 3459 3480 3742 3520 3452 3751 3507 3095 2808 3323 3398 3320 3299 3203 2850 1529 1008 1250 1774 2548 2364 1960 2421 2154 1882 1499 1702 709 952 614 324 427 866 899 857 1362 1472 1535 1202 1440 1331 1723 2280 2390 2558 2463 2387
1212 1131 1212 1318 1439 1745 1880 2160 2391 2686 2949 3146 2768 2441 2236 1894 1901 1616 1335 1519 1737 1685 2304 2010 2001 2128 2580 2418 2614 2683 2670 2651 2497 2590 2483 2640 2911 3212 3539 3704 3391 3745 3345 3649 3456 3117 2806 3153 3288 3577 3575 3264 3186 2397 1674 1012 1583 1720 1488 1594 2086 1887 1650 1826 1682 1426 1072 1008 941 672 613 694 744 1001 1058 977 1049 1073 1172 1444 1502 1585 1975 2162 2154
859 1064 1114 1202 1570 1774 1967 2178 2317 2408 2870 2906 2750 2401 2355 2120 1989 1656 1385 1491 1309 1715 2438 2669 2670 2596 2699 2576 2617 2847 2898 3231 2893 2912 2637 2756 2969 3458 3838 3918 3676 3506 3528 3761 3612 3094 3194 3449 2808 3607 3705 3457 3453 2994 2474 1419 1531 1612 1841 1865 1727 1648 2161 1717 1670 1686 1624 1444 808 783 610 690 790 796 806 756 870 1076 1291 1525 1546 1556 1699 2174 2332
748 867 991 1143 1558 1738 1985 2102 2318 2554 2656 2956 2688 2424 2260 2198 2019 1688 1790 1500 1184 1359 1650 1846 2229 2214 2526 2960 3028 2959 2984 3329 3359 2858 2929 3192 3375 3895 4286 4419 3732 3837 3453 3729 3253 3110 3001 3872 3550 3500 3403 3523 3500 3072 3357 2711 2278 1818 1905 2380 2136 1695 1619 1388 1648 1346 1709 1773 729 970 1158 942 1177 1078 1109 1144 1113 1256 1260 1423 1486 1186 1642 2162 2337
560 762 735 1128 1409 1691 1831 1987 2172 2470 2512 2887 2564 2368 2270 2197 2146 1885 1878 1776 1596 1516 1397 1845 2248 2630 2717 2719 2665 3290 2757 2732 3174 3667 3681 3824 3726 3888 3933 3967 3888 3517 3290 3610 3552 3403 3231 3396 3615 3672 3794 4068 3650 3263 3410 3318 2860 2850 2152 2407 2850 2380 2070 1630 1511 1458 1191 1551 1172 863 789 1034 1568 1241 1322 1274 1285 1324 1320 1333 1380 1321 1514 1754 1917
586 709 783 987 1261 1401 1710 1919 2138 2460 2457 2724 2628 2263 2146 2030 2197 2187 2121 1735 1758 2165 2116 2259 2381 2790 2860 2924 2770 2708 2856 2796 2711 3138 3734 3645 3685 3772 3523 3450 3420 3663 3571 3986 3521 3083 3054 2992 3339 3559 3521 3714 3382 3936 3135 2970 2842 2848 2740 2417 2313 1567 2048 2030 2031 2138 1874 1382 1489 1221 984 1140 1105 1335 1427 1285 1512 1418 1406 1421 1238 1226 1639 1721 2056
Wind_Speed
7 7 8 6 6 4 5 5 5 4 2 3 4 4 4 4 3 8 8 8 8 9 10 8 8 8 9 10 10 10 9 10 10 10 11 11 9 8 9 9 12 12 12 11 13 13 12 11 11 11 10 10 9 9 8 9 10 10 11 11 11 11 11 11 11 10 11 12 13 12 11 9 11 11 5 5 8 8 10 11 9 10 7 8 5
6 7 7 5 6 5 6 5 6 5 3 2 4 3 2 4 7 7 7 7 7 8 9 8 7 6 7 8 8 8 9 10 10 10 10 10 10 10 13 16 14 9 8 9 10 10 10 11 11 10 10 9 9 9 9 9 10 11 11 12 12 12 11 11 10 10 11 12 12 12 12 11 10 10 11 8 9 11 12 12 9 7 7 4 5
5 5 5 5 7 8 7 9 5 3 2 5 6 7 6 5 5 6 6 5 5 6 6 5 4 4 5 7 7 8 9 9 9 9 10 10 10 10 15 12 10 8 10 9 9 10 5 9 10 9 9 9 10 10 9 10 10 11 12 12 13 14 11 10 9 10 11 11 12 11 12 14 14 11 9 10 10 12 12 11 9 8 6 5 4
5 4 4 5 8 10 9 8 1 1 3 4 5 3 3 3 4 4 5 4 4 4 4 3 3 5 6 7 7 7 8 9 10 10 10 10 11 10 12 12 11 10 11 9 8 8 10 9 8 8 8 9 10 10 10 9 10 11 12 12 13 10 9 9 9 10 11 12 12 10 12 11 11 13 12 13 12 11 11 9 9 8 6 4 5
4 4 4 6 5 8 13 14 4 3 3 2 1 1 1 2 3 4 3 3 3 4 6 7 8 9 9 9 8 8 8 8 9 9 10 9 8 9 11 12 10 10 12 10 9 10 11 9 8 8 8 8 10 10 9 10 11 12 12 12 12 10 10 10 11 11 12 12 12 11 9 10 9 12 11 9 11 10 9 8 7 6 5 6 5
3 4 4 5 6 7 15 16 5 4 4 4 3 2 3 3 3 4 5 6 7 7 7 9 12 10 9 9 9 8 8 8 10 10 10 10 10 11 12 11 10 11 11 11 14 10 8 6 8 8 8 8 9 11 9 9 10 12 12 12 11 10 9 10 11 11 10 9 10 11 10 10 8 8 8 8 11 9 8 8 6 4 4 5 5
4 5 5 5 7 7 14 17 6 6 6 6 5 4 3 4 5 7 9 10 9 10 10 10 11 10 10 8 8 8 7 10 11 11 10 11 12 12 11 10 10 11 12 11 8 6 7 6 4 7 7 7 9 9 9 9 9 11 12 12 10 9 9 10 12 13 13 10 12 11 10 8 7 8 7 5 7 9 8 8 7 6 5 4 4
4 5 6 7 7 8 17 14 7 7 6 6 5 5 7 8 11 12 10 10 9 9 10 12 14 11 6 6 9 8 10 12 13 11 10 12 12 12 12 10 10 12 12 9 10 11 9 8 7 6 6 7 8 8 8 8 9 11 12 11 9 9 10 10 12 13 12 12 12 12 10 8 7 7 8 7 7 9 8 7 6 5 5 4 2
5 4 6 6 5 7 13 7 6 5 5 5 5 7 9 10 10 10 9 8 8 8 10 14 13 9 3 5 10 8 11 11 11 11 10 11 12 12 12 10 11 12 10 10 12 13 11 10 7 6 6 7 6 6 6 8 10 11 12 10 9 9 9 9 10 9 11 11 10 10 8 8 7 7 8 9 10 9 7 5 3 5 5 4 4
4 5 6 6 5 5 6 6 5 5 5 3 5 6 7 7 6 6 7 7 7 7 8 13 12 5 3 2 7 8 10 10 9 8 9 11 10 11 13 12 13 12 11 13 15 15 15 11 8 5 5 6 7 8 9 10 11 12 9 8 8 8 8 7 8 10 9 9 11 11 13 10 8 9 9 9 10 10 10 9 9 7 4 4 5
5 5 5 3 2 5 5 5 4 4 3 3 5 5 5 4 5 5 6 5 5 6 7 10 10 4 2 4 10 8 5 6 6 5 6 6 6 8 12 14 14 14 14 15 14 13 14 12 6 4 4 6 9 11 10 11 10 10 9 8 8 9 8 7 8 9 8 8 8 8 9 10 10 10 10 10 10 9 9 8 7 5 4 4 4
3 4 3 3 2 5 5 4 2 2 2 4 4 3 3 2 3 4 4 5 5 5 7 9 9 5 1 3 5 3 0 2 1 3 2 3 4 6 12 13 11 12 10 9 12 11 12 11 5 5 5 7 7 6 8 10 10 9 8 8 8 9 10 10 9 9 8 8 9 9 9 9 10 10 10 10 10 9 8 7 6 4 4 3 3
3 2 2 3 4 5 5 2 1 1 2 2 1 1 1 2 3 3 3 4 4 4 6 7 7 5 1 0 3 1 2 2 2 2 2 3 4 6 10 13 8 9 6 7 10 9 7 6 4 6 6 6 6 8 9 9 9 9 9 9 10 11 12 11 8 8 8 8 8 8 9 10 11 14 11 10 9 8 7 6 5 4 3 4 5
3 2 3 3 5 3 4 5 3 2 2 2 2 1 1 2 2 2 3 3 3 3 4 5 5 3 1 1 1 1 3 4 4 3 1 4 5 6 10 11 6 8 7 5 6 4 5 5 7 7 10 11 9 9 9 9 9 9 9 9 10 10 7 8 9 9 8 8 9 9 10 11 12 14 11 9 8 7 6 5 4 4 4 5 7
2 2 2 2 5 4 5 6 5 3 2 2 3 4 3 3 3 2 2 3 2 2 5 5 5 5 2 1 5 6 6 5 4 1 1 4 5 6 7 8 5 5 7 7 5 2 2 6 8 11 12 11 12 11 10 9 9 9 9 9 10 11 11 9 9 9 9 9 9 10 10 12 12 12 10 9 8 7 6 4 4 5 6 8 9
2 1 2 2 4 6 5 4 6 5 4 6 8 7 6 3 3 1 2 1 1 6 6 2 7 8 4 4 6 7 7 6 4 2 3 2 4 5 7 5 2 2 4 4 3 3 7 9 11 13 13 14 13 14 13 11 10 9 9 9 10 11 12 11 10 10 10 10 10 11 11 12 12 11 9 8 7 6 5 4 6 8 9 10 11
3 2 1 2 2 7 6 7 7 6 6 8 6 7 5 3 4 1 0 2 4 10 6 2 9 12 8 8 7 5 6 7 4 2 2 1 4 4 4 4 3 4 5 3 4 5 8 9 12 14 14 14 14 13 13 13 9 8 7 8 9 10 13 11 9 10 11 12 13 13 13 11 11 10 9 7 6 5 4 6 9 10 11 12 12
4 3 2 2 6 5 7 7 10 9 7 5 4 3 4 2 2 1 1 3 10 14 5 3 10 14 7 9 5 5 8 8 6 5 3 3 3 3 2 5 6 4 3 4 6 7 7 10 13 14 13 13 12 11 12 12 12 8 7 7 8 11 14 15 11 12 13 13 14 14 13 11 10 10 8 7 6 5 7 9 11 12 14 14 13
6 4 3 3 5 9 8 9 7 10 9 7 4 3 1 2 2 1 2 6 12 12 6 4 12 12 4 9 7 8 8 7 4 3 3 2 1 1 3 5 6 5 5 6 7 8 8 12 13 14 14 13 12 12 11 12 11 9 7 7 9 11 15 14 11 13 14 14 14 13 13 12 10 9 8 7 7 8 10 12 13 14 15 15 14
7 6 4 4 6 9 11 12 11 10 9 5 3 4 1 2 2 1 2 6 11 13 6 7 13 13 7 5 5 7 8 5 6 3 4 2 1 2 3 5 5 5 5 4 5 7 8 10 11 12 14 15 13 11 11 10 10 10 8 8 11 15 14 13 15 15 15 17 15 12 11 11 10 9 8 8 10 11 12 13 14 16 16 15 14
8 6 6 6 6 7 9 11 11 10 8 5 4 3 4 2 5 4 2 4 9 11 6 5 12 12 9 7 4 2 2 3 3 4 4 4 3 2 3 4 5 6 6 5 5 7 8 9 9 10 12 12 12 9 9 8 8 9 9 12 15 15 14 16 16 16 15 14 13 11 12 11 10 10 10 11 13 14 14 15 17 17 17 16 16
7 7 7 7 7 8 8 9 10 10 8 7 6 5 5 8 5 5 5 2 4 10 7 4 5 10 14 9 8 5 6 6 6 6 6 4 4 3 4 6 5 5 6 5 7 7 7 8 9 9 11 11 11 8 7 7 8 11 12 15 18 14 16 17 18 16 14 13 12 9 10 10 11 11 12 14 15 15 16 17 18 18 18 18 17
8 8 9 8 9 8 8 8 8 9 8 7 6 5 6 8 7 7 6 3 2 2 3 3 3 5 6 6 6 7 8 8 8 9 8 4 5 3 4 5 6 5 6 5 6 8 10 12 12 11 11 12 14 12 8 8 9 12 16 17 14 16 17 18 17 15 14 13 10 8 9 11 12 13 14 15 16 16 18 19 19 19 19 19 18
8 9 9 10 9 9 8 7 7 9 10 9 7 7 8 10 11 9 7 5 3 2 1 2 4 5 6 3 3 6 9 9 3 4 7 8 7 3 3 4 5 7 7 7 6 8 10 14 17 16 14 16 14 13 10 11 13 14 15 15 17 17 17 17 15 14 12 12 9 7 9 12 14 15 16 16 17 18 19 20 20 21 20 22 19
8 9 9 11 9 9 9 7 7 9 9 9 9 8 9 11 11 9 7 6 4 3 3 3 5 5 6 5 4 3 8 10 10 10 10 10 10 8 8 9 9 8 9 11 12 12 15 16 18 18 17 16 14 11 11 12 14 15 17 18 17 18 16 15 14 13 11 9 7 8 10 12 14 17 17 17 18 20 21 20 22 21 21 21 21
8 10 10 10 10 9 8 8 7 8 9 9 9 8 11 11 11 10 9 7 5 4 3 5 6 7 5 5 3 2 7 13 17 14 12 13 12 10 9 8 7 6 7 10 12 14 16 17 18 17 17 11 11 14 15 15 15 17 17 18 18 17 16 14 12 12 11 9 6 9 11 13 16 17 18 18 20 20 20 21 21 22 22 22 22
9 8 10 10 11 9 9 9 7 8 8 9 9 10 11 11 11 11 10 8 7 5 4 5 6 7 7 5 5 6 7 6 12 14 13 14 12 10 7 7 8 9 10 11 14 16 18 16 17 15 14 13 14 16 17 18 18 17 17 18 18 15 14 12 12 11 9 9 6 8 11 14 16 17 18 19 20 21 22 22 22 22 22 23 23
8 7 9 10 12 9 10 10 8 8 7 8 9 10 11 12 11 11 10 8 7 6 5 5 6 8 8 8 6 5 5 6 9 13 12 12 10 9 8 6 8 8 9 10 16 17 16 16 17 18 19 19 18 19 17 17 19 19 16 16 16 13 13 11 10 11 10 9 9 9 11 14 17 18 18 19 21 22 22 21 22 22 22 23 23
6 7 8 9 10 11 11 11 10 10 9 9 9 10 11 12 12 12 11 10 9 7 6 6 6 7 8 8 8 7 6 6 7 8 10 9 9 9 8 7 7 7 10 11 12 14 16 17 19 19 20 20 19 19 20 18 17 17 16 14 13 12 11 10 9 10 9 9 11 6 11 14 17 18 18 19 21 23 23 22 21 22 22 23 22
6 6 7 8 9 10 12 11 12 12 12 10 11 10 11 11 11 12 11 12 9 7 7 7 7 8 8 8 10 9 8 8 7 8 8 8 8 8 8 7 7 8 9 11 14 15 17 18 19 20 21 21 19 19 21 18 17 15 16 13 13 9 10 9 9 9 9 9 9 7 11 14 17 17 18 19 21 23 23 22 22 22 22 22 22
6 6 6 8 7 10 10 11 12 14 14 12 11 10 10 10 11 11 11 11 9 9 9 8 7 7 7 8 9 10 9 8 7 7 7 7 8 9 8 8 8 8 10 13 15 16 17 19 19 19 20 19 18 18 19 17 16 15 14 12 10 10 9 9 10 10 8 8 8 10 9 14 16 17 17 18 20 22 23 22 22 22 23 22 22
6 7 7 8 7 8 8 10 12 14 15 13 12 11 10 10 11 10 10 9 10 10 9 8 8 7 8 8 8 9 9 8 7 7 7 8 8 9 9 9 9 11 13 14 15 17 17 18 19 20 20 18 18 17 19 16 15 13 12 11 10 10 9 10 9 6 6 6 8 9 10 10 15 16 16 18 19 21 21 21 21 21 22 23 23
nan 7 6 8 6 8 7 10 10 12 15 13 12 12 12 12 11 10 9 10 10 10 9 9 9 8 9 9 8 8 8 7 8 7 8 8 8 9 9 10 12 13 14 15 16 18 17 18 17 19 19 18 17 16 17 14 13 14 13 9 9 9 9 9 9 9 7 7 7 9 9 9 9 14 16 16 17 19 20 20 21 21 22 22 23
nan 7 5 7 7 8 8 9 9 10 12 12 13 12 13 13 12 11 10 10 10 9 9 9 10 10 9 10 9 8 8 8 8 8 8 8 9 11 10 11 13 14 15 17 17 18 17 18 17 17 18 18 16 16 15 13 12 11 11 9 9 9 10 9 9 7 9 7 6 8 9 8 10 10 10 14 16 17 19 19 19 20 21 22 23
nan 7 5 5 6 7 8 7 8 7 10 10 12 12 13 13 13 12 11 11 10 10 9 9 11 10 11 10 10 9 8 8 9 9 9 9 10 11 12 12 13 14 15 17 19 17 17 17 18 17 16 16 16 16 16 13 11 9 10 10 8 8 10 8 9 9 7 7 10 8 9 10 8 9 10 10 11 15 16 18 19 19 19 21 22
nan 6 5 5 4 5 7 5 4 6 7 8 9 10 11 13 12 12 12 12 11 10 10 10 10 11 11 10 10 10 9 9 9 11 10 12 11 12 13 13 14 15 15 16 18 16 17 18 17 16 15 16 16 13 13 12 12 9 8 9 7 9 9 8 9 10 6 9 8 8 9 9 9 9 11 11 10 7 13 15 16 17 18 19 20
nan 5 4 4 4 4 8 5 3 4 5 5 6 8 10 10 12 12 11 13 12 11 11 11 11 11 11 10 11 11 11 10 11 12 13 12 12 11 12 12 14 14 15 15 15 15 17 14 15 15 15 15 15 12 11 11 10 9 8 7 6 8 8 9 9 7 6 8 9 7 7 6 8 9 11 10 10 8 8 12 14 15 15 17 17
nan nan 4 4 5 4 6 6 4 3 3 3 5 7 8 9 10 10 11 12 12 12 11 11 11 10 11 10 11 12 12 12 12 13 15 13 13 12 11 12 13 13 14 14 14 14 14 14 13 14 13 12 13 12 11 12 10 8 9 5 8 9 7 9 7 9 7 7 7 7 8 7 7 8 10 11 9 9 8 9 12 13 14 14 15
nan 5 5 5 6 6 7 6 4 4 2 3 3 5 6 8 8 10 9 11 12 12 11 11 10 10 10 9 11 12 12 12 12 13 13 13 12 11 11 11 12 12 12 12 11 12 13 13 13 11 12 12 11 12 11 12 10 11 7 6 6 8 9 7 10 8 9 8 7 8 5 6 6 6 8 9 8 7 9 9 7 7 7 13 12
nan 6 5 5 6 6 6 5 5 3 3 2 4 5 6 7 8 8 8 9 10 10 11 11 10 10 8 9 11 12 11 11 12 12 12 12 11 10 10 10 10 10 12 12 11 10 11 11 11 12 11 10 9 10 9 10 7 7 8 7 7 6 8 9 10 9 8 8 6 8 5 3 4 6 5 7 8 8 7 7 7 6 5 8 10
6 5 5 5 5 5 5 4 5 5 4 4 4 5 5 6 7 8 7 7 8 8 9 9 9 9 7 8 9 9 9 9 10 10 10 10 11 9 9 9 9 9 10 10 11 11 10 11 9 11 10 9 9 7 6 9 7 5 7 6 5 8 6 9 10 9 8 7 5 6 4 5 4 4 5 6 6 6 5 6 6 5 5 4 7
5 3 4 5 5 4 4 5 6 6 6 5 5 5 5 6 6 6 6 4 5 7 6 7 6 5 6 7 8 7 7 7 7 8 8 8 9 8 8 7 9 9 10 10 9 8 9 10 11 8 8 8 8 11 9 8 6 6 6 5 4 5 7 9 10 6 7 5 4 4 4 6 4 3 3 2 4 4 5 4 6 5 5 5 5
3 3 4 4 5 6 6 6 7 7 6 6 6 5 5 5 6 4 5 2 3 5 3 3 4 3 4 5 6 5 5 5 5 5 6 7 7 7 7 6 8 8 8 7 7 7 9 10 11 11 10 7 7 6 8 13 5 4 5 7 5 3 5 6 7 5 7 3 5 3 4 2 3 4 4 3 3 4 5 5 4 5 4 5 5
5 5 5 4 5 6 6 6 6 7 7 6 7 6 5 4 6 5 5 5 2 3 3 2 3 1 1 2 4 4 5 4 4 4 4 5 5 5 6 5 6 8 8 8 7 6 7 8 10 10 11 8 8 7 6 7 9 7 3 6 6 5 3 5 4 6 3 4 5 0 2 2 4 4 4 4 4 4 3 4 3 3 4 4 5
6 5 5 4 6 3 5 6 6 6 7 7 6 7 5 3 4 4 3 4 4 1 1 1 1 1 0 1 1 3 4 4 3 4 3 3 3 4 5 5 5 6 7 6 7 6 7 7 7 9 10 10 8 7 7 7 8 9 7 6 3 5 7 6 5 9 7 2 2 3 5 5 4 4 6 7 5 3 4 2 3 3 3 3 3
6 6 6 4 5 4 3 5 7 7 7 6 6 6 4 3 3 3 3 3 3 2 1 1 2 2 2 1 2 1 2 3 2 3 2 2 2 3 4 4 4 5 6 9 8 8 5 7 6 7 6 7 9 7 5 6 7 6 4 6 9 8 9 9 9 6 8 6 3 4 2 4 4 2 4 1 1 1 1 0 0 2 1 2 4
6 7 7 6 5 5 4 4 7 7 7 7 6 5 4 4 3 3 4 4 4 4 4 4 4 3 5 3 2 2 1 2 1 1 2 2 2 3 4 5 5 5 5 5 5 5 6 7 8 6 7 7 7 6 6 5 7 4 6 7 8 8 8 9 8 5 5 8 8 2 3 3 3 1 1 1 3 2 2 3 2 4 3 2 3
8 8 8 8 6 6 5 5 7 7 7 7 5 4 4 3 3 4 5 4 4 5 4 6 7 6 5 4 3 3 2 2 2 1 0 1 1 2 2 3 3 4 4 4 6 7 9 8 7 8 7 6 6 7 8 8 5 6 10 9 7 8 8 8 9 8 6 4 2 3 4 3 3 6 4 5 6 7 6 2 1 1 3 3 1
9 9 9 9 8 7 7 7 7 7 7 6 5 3 4 4 3 4 5 5 5 5 4 5 6 5 6 6 5 5 4 3 2 2 0 0 0 1 0 1 1 1 2 3 3 5 5 6 5 5 5 5 6 7 7 7 9 9 8 10 11 9 7 7 5 6 8 6 4 4 6 4 4 5 7 5 6 6 4 5 5 3 2 2 1
11 10 9 9 8 8 8 8 7 8 8 6 5 3 3 4 4 4 4 4 4 4 4 6 5 5 4 5 6 6 4 3 3 2 2 1 0 0 1 2 1 1 1 2 3 3 3 4 4 5 8 8 8 7 7 8 9 10 9 9 9 10 10 8 7 6 7 5 5 4 4 3 4 5 5 6 7 7 6 6 1 2 5 2 1
12 11 10 10 9 9 9 9 9 10 10 8 6 4 3 4 5 4 3 2 3 4 3 4 3 3 3 4 4 4 4 4 3 4 2 1 1 1 1 1 1 1 0 1 1 1 2 2 3 6 5 6 7 8 8 7 8 9 9 8 8 6 8 8 8 9 7 6 6 5 6 7 7 6 5 7 4 6 4 3 4 5 3 1 2
Wind_Direction
92 89 102 115 107 96 122 127 120 112 148 239 236 214 178 117 206 236 237 239 237 241 240 241 245 242 242 241 240 237 233 230 226 225 228 220 224 242 245 240 230 231 231 234 222 204 202 212 226 235 237 237 240 238 236 232 230 230 229 230 230 235 238 235 227 219 211 208 205 200 191 182 181 181 179 182 188 179 177 180 173 163 163 165 216
65 78 86 105 103 106 111 107 94 68 56 345 318 322 319 218 233 244 248 249 252 258 258 251 245 243 239 238 235 227 221 222 219 221 219 211 214 230 238 230 235 255 269 256 258 236 195 195 211 223 230 234 235 233 227 230 229 227 226 224 226 229 232 230 227 216 207 197 196 198 198 195 189 176 168 186 190 188 187 187 175 157 153 196 211
64 77 84 101 103 109 120 115 52 2 273 241 237 236 237 248 248 253 253 251 251 250 252 249 245 233 228 227 227 220 219 225 229 225 224 210 214 221 245 259 260 244 253 255 264 270 220 204 201 209 219 227 232 233 235 230 223 221 223 221 223 223 220 225 217 207 196 188 191 200 207 200 195 193 177 190 195 192 193 186 180 177 164 204 223
35 70 85 98 102 112 116 122 76 247 243 239 241 262 274 275 267 255 242 226 224 230 239 223 206 207 212 219 225 228 226 224 225 225 223 213 202 232 258 259 250 249 244 234 227 239 238 207 195 199 209 220 234 233 227 231 225 219 218 221 226 219 222 219 207 199 193 179 170 178 164 163 181 188 187 186 184 198 193 191 194 196 212 213 235
28 59 80 84 85 109 118 120 120 163 195 205 200 183 191 199 215 223 234 239 235 214 208 211 200 198 210 213 221 228 228 228 235 236 235 231 216 239 246 256 260 252 244 239 232 220 230 204 186 198 208 217 230 242 238 230 218 216 216 221 227 225 218 208 199 192 188 175 159 169 162 171 172 187 189 180 172 190 195 189 191 195 216 230 238
44 69 71 87 91 103 116 117 118 136 138 126 114 127 149 165 191 203 214 213 213 213 217 219 213 208 210 210 204 222 228 232 230 227 232 238 236 233 239 243 245 248 243 235 221 211 223 219 189 201 210 220 233 241 239 232 220 220 223 221 222 222 215 201 188 180 179 176 166 164 166 167 171 159 187 198 145 182 185 183 186 192 221 251 262
39 79 83 79 88 106 106 109 109 112 112 110 115 128 155 177 196 211 216 223 220 228 221 227 232 221 212 215 221 229 238 236 232 225 227 236 235 237 239 241 244 244 237 231 247 240 233 232 212 211 219 230 235 244 247 236 226 225 223 221 220 218 209 194 179 166 156 152 163 164 162 172 170 148 184 164 159 179 182 182 182 188 205 215 227
80 87 79 86 91 84 102 98 108 114 116 116 127 156 185 198 208 211 216 221 229 233 234 239 237 234 222 216 225 230 233 229 231 223 223 232 240 243 242 244 238 237 234 229 226 225 222 226 216 219 229 237 242 244 244 240 228 224 225 225 221 213 206 194 185 177 177 169 168 163 161 174 177 151 154 171 166 171 172 180 182 192 199 210 269
86 85 86 89 90 100 89 93 105 113 110 114 157 194 205 207 209 215 218 222 233 238 250 258 249 250 195 243 265 249 244 238 236 229 231 238 234 242 243 243 241 233 226 223 220 209 197 224 222 229 240 240 249 258 254 241 230 216 214 221 220 209 197 188 170 159 167 166 168 165 166 167 170 162 157 170 165 161 157 154 209 222 218 224 240
77 81 90 93 92 88 91 100 110 106 110 154 202 205 206 210 219 223 228 229 228 242 257 274 285 278 89 315 277 262 262 255 238 226 230 239 232 242 248 236 235 233 219 219 216 203 190 219 224 231 238 246 245 239 235 226 218 214 218 219 211 200 189 187 173 174 167 170 174 172 166 172 178 167 170 172 173 173 184 186 188 190 199 242 242
58 79 88 98 114 87 92 100 116 140 146 180 205 203 206 217 232 228 233 240 238 248 258 269 277 305 59 226 251 254 247 253 225 193 217 243 243 244 250 237 225 229 222 214 212 208 187 184 223 227 229 238 236 227 212 215 213 216 216 211 200 185 175 184 153 170 172 174 175 166 178 186 171 164 172 170 172 177 182 187 196 204 221 233 230
67 81 105 129 88 96 102 117 143 135 147 197 203 189 199 237 250 237 228 226 236 246 255 269 280 298 320 269 256 247 221 248 230 146 194 259 264 268 263 259 239 239 230 222 223 203 194 156 197 210 219 228 230 234 223 214 212 215 213 205 193 180 175 172 169 170 174 177 174 166 173 174 173 169 170 168 168 174 183 188 191 201 215 216 193
59 82 89 75 85 90 95 126 193 139 173 202 210 121 206 247 225 221 230 223 223 233 252 261 273 269 261 212 270 302 11 327 332 59 129 245 261 265 268 270 258 258 247 224 225 214 173 158 172 195 213 219 217 215 216 216 214 211 205 197 186 180 176 169 169 174 169 170 167 169 169 171 172 157 166 165 168 174 181 181 184 194 198 180 146
53 76 81 80 98 88 167 178 155 163 176 150 139 115 165 180 195 180 177 193 217 238 238 244 269 261 278 292 322 351 347 320 317 18 349 269 262 253 260 276 295 290 286 282 255 179 145 154 211 208 203 190 203 210 214 219 218 207 195 188 179 171 165 170 170 172 173 175 169 170 170 160 163 146 162 162 167 173 172 175 184 187 169 149 123
39 40 76 95 87 128 206 169 140 154 165 109 101 101 116 139 156 129 140 150 168 237 245 265 276 282 269 350 350 342 335 333 333 345 284 258 270 269 274 297 308 290 291 296 292 1 214 178 200 206 203 195 191 199 208 212 209 201 189 177 173 164 156 157 155 157 160 161 160 164 162 158 153 149 158 161 166 167 163 168 172 160 145 126 121
60 51 68 86 134 127 132 134 137 130 114 100 95 96 97 95 58 93 129 156 264 257 248 308 298 290 283 56 25 334 326 320 298 300 271 251 279 290 314 315 302 289 270 258 253 199 186 188 196 195 197 195 192 191 192 198 195 191 182 176 171 167 163 155 158 155 151 153 150 148 153 154 147 153 152 160 162 157 155 156 150 142 136 125 120
91 86 101 160 111 102 113 117 127 109 101 99 109 129 122 149 143 116 266 273 264 262 253 90 276 287 307 59 43 328 309 299 293 299 293 309 283 296 305 291 260 246 246 223 190 190 189 191 191 192 194 192 190 186 184 182 186 179 178 174 169 153 140 136 153 156 151 151 145 142 144 142 149 145 150 151 145 146 143 139 139 136 127 122 122
97 106 123 133 114 104 111 117 102 105 109 106 128 126 139 140 70 116 250 251 250 247 290 353 283 281 325 31 21 326 313 307 331 337 328 301 285 277 269 261 246 243 230 200 181 184 189 187 187 189 192 184 178 178 174 173 169 173 172 168 155 145 140 139 159 154 151 143 142 143 146 153 146 143 141 135 129 130 135 136 134 130 123 120 121
99 100 119 129 120 117 107 91 90 105 104 106 106 119 210 81 60 84 212 244 255 281 301 286 269 273 344 38 352 315 312 324 349 359 316 289 282 261 254 235 227 210 188 183 187 190 183 176 173 174 178 176 170 170 169 165 162 162 167 150 136 133 124 132 150 144 138 135 138 141 145 143 137 133 127 119 119 126 132 133 129 122 120 120 121
110 112 122 129 117 113 117 115 112 99 101 129 111 107 114 103 113 197 221 262 268 287 302 304 294 305 354 24 318 324 326 330 321 352 324 339 74 150 211 205 211 192 184 194 192 187 178 169 165 166 171 170 165 162 165 161 153 149 144 135 122 109 123 147 146 140 140 141 138 139 141 134 131 123 118 116 121 127 129 128 122 117 117 118 119
115 123 121 116 106 101 105 109 108 117 130 123 129 119 96 60 185 176 198 246 288 273 286 323 304 319 351 36 20 357 23 56 57 47 24 86 85 132 170 187 188 176 179 202 210 190 178 165 164 159 157 154 150 156 158 152 144 135 134 116 104 116 144 141 134 137 134 129 133 141 134 125 120 115 117 121 124 125 125 122 118 116 116 118 118
107 118 110 107 106 103 99 105 109 114 115 114 107 103 80 89 79 111 113 127 265 318 345 23 323 329 345 34 77 75 66 71 85 67 82 85 105 136 154 165 167 172 179 194 202 196 173 148 141 147 146 132 110 127 142 149 134 121 113 107 108 138 133 135 136 134 132 129 133 134 126 118 112 115 118 122 123 122 119 116 115 117 117 117 115
107 111 110 102 105 103 101 98 108 113 113 115 110 103 98 102 101 89 102 140 209 234 312 349 39 329 313 341 69 94 102 98 94 104 110 101 107 119 131 145 155 166 184 189 192 179 158 145 144 142 131 126 123 131 136 127 123 102 99 104 126 129 135 131 128 128 131 131 129 129 113 110 112 116 121 120 121 119 115 114 116 117 117 113 111
105 108 109 107 103 105 101 103 106 110 117 124 118 114 108 103 108 110 113 117 131 137 141 62 48 7 329 356 37 105 115 116 118 114 101 104 100 87 109 127 149 161 164 155 167 152 142 143 143 137 126 121 125 109 129 125 118 115 116 124 131 129 123 123 126 126 126 127 130 117 106 108 113 116 117 117 116 115 114 112 114 116 118 112 111
112 121 114 110 111 106 102 102 102 109 119 124 123 120 113 112 111 111 117 121 128 109 80 68 68 44 356 352 355 64 116 115 109 104 105 105 103 99 91 97 108 125 136 139 134 126 120 121 121 111 106 105 98 115 120 123 123 123 129 133 127 124 121 122 125 121 116 112 119 99 103 107 114 117 117 115 114 116 115 116 116 115 116 112 107
116 114 119 112 108 109 108 101 99 112 120 125 128 122 110 111 113 120 124 127 124 111 82 76 72 76 61 346 9 28 104 119 117 117 115 111 106 106 105 110 113 113 99 102 99 93 92 88 91 92 87 98 124 128 130 122 121 123 128 127 125 120 122 121 117 114 111 103 89 95 103 112 113 116 115 114 114 115 114 117 118 116 114 111 107
104 122 118 120 117 108 109 103 102 104 116 125 121 118 119 115 115 119 119 125 117 99 79 71 76 78 81 68 33 24 32 83 107 103 98 99 99 99 103 113 114 96 88 89 104 103 94 91 92 110 123 122 125 124 117 123 121 122 125 124 122 122 120 118 111 102 102 99 73 80 102 109 111 111 111 114 115 112 112 118 120 117 112 109 107
107 114 118 118 110 108 106 106 109 102 104 108 113 116 120 114 113 112 118 126 114 101 87 69 60 73 88 101 105 98 84 54 66 83 93 97 100 99 87 69 78 94 99 98 87 89 102 113 116 115 118 120 115 112 114 111 117 120 116 120 114 119 117 115 111 103 89 89 83 60 92 98 105 106 110 113 117 116 115 117 119 114 109 106 105
105 107 121 118 112 115 101 102 101 102 103 100 106 114 116 116 114 115 119 118 109 98 88 71 67 68 78 93 103 110 105 94 85 91 98 101 98 91 88 87 80 78 75 79 91 94 94 100 105 107 106 109 108 111 110 115 114 119 121 113 116 113 113 108 102 93 97 88 87 67 78 92 100 104 108 114 116 118 120 118 118 113 110 106 107
110 114 116 123 116 108 103 103 105 107 108 104 108 106 111 110 110 109 113 109 112 100 76 72 70 68 76 100 113 116 119 114 113 109 104 104 106 106 103 94 86 79 78 83 85 86 90 94 99 102 103 105 111 115 115 116 118 120 120 118 112 112 97 94 90 89 82 84 98 86 68 89 95 99 105 113 118 120 122 121 120 115 112 110 109
113 111 123 123 128 108 106 109 110 112 111 111 108 105 104 104 104 104 103 104 101 94 90 88 80 76 82 91 106 110 115 125 122 117 117 113 112 106 101 94 89 92 90 87 87 91 94 99 104 104 107 110 114 116 113 117 120 116 115 110 106 100 104 94 72 67 66 92 103 100 71 71 88 93 102 108 116 118 119 122 117 113 110 109 108
114 114 128 121 110 108 110 104 107 112 113 112 108 103 102 102 101 104 105 105 100 100 99 95 89 89 87 90 99 109 122 127 122 120 121 112 106 106 104 101 105 102 99 96 95 99 102 105 106 112 112 114 111 113 113 115 118 122 110 114 108 100 88 85 81 93 95 95 100 105 101 84 71 87 97 108 111 113 117 116 115 110 107 105 105
nan 121 128 109 110 110 123 106 108 110 108 109 107 106 102 102 106 111 110 100 95 99 103 101 95 90 91 96 99 102 105 112 117 115 108 108 105 99 102 105 105 105 104 106 105 101 102 103 108 110 117 114 117 115 109 117 127 124 112 107 104 99 88 79 80 75 90 79 93 104 110 109 92 65 83 98 105 114 115 113 112 109 107 105 104
nan 138 121 109 125 125 118 109 105 102 106 110 108 104 103 107 111 115 115 107 105 99 99 97 93 90 91 94 98 103 109 108 107 108 105 106 104 108 109 110 111 109 107 103 103 107 110 113 115 116 117 120 121 120 122 124 120 110 112 109 99 101 89 82 85 83 85 103 120 109 104 105 109 106 95 77 97 103 106 109 107 106 105 102 102
nan 139 126 123 125 127 124 120 102 104 100 108 101 106 102 102 106 113 117 115 109 105 103 96 92 91 87 92 96 100 103 104 105 106 109 104 105 109 110 114 115 108 109 111 111 112 113 114 119 120 122 124 128 130 132 132 121 115 117 114 108 99 97 90 98 92 89 106 111 125 123 118 119 114 110 108 77 89 97 98 98 101 100 101 100
nan 151 153 130 129 135 119 124 94 95 101 102 104 103 101 103 107 112 113 112 110 109 109 102 95 93 91 93 95 96 97 101 104 106 105 108 113 115 120 122 114 113 117 116 113 116 120 121 124 126 131 136 128 130 127 126 127 126 116 92 93 89 84 95 84 96 115 102 113 117 117 125 120 125 127 125 127 99 77 89 93 93 96 97 98
nan 150 162 140 138 161 122 126 96 99 100 100 103 101 101 98 99 99 109 109 108 108 107 110 103 97 98 95 94 95 98 102 106 107 107 109 116 119 119 118 117 122 118 116 118 121 119 123 126 133 136 136 134 140 131 124 123 113 94 100 102 101 102 92 97 98 106 107 96 92 109 125 131 117 108 115 121 123 61 78 82 87 89 92 93
nan nan 166 158 140 172 134 145 164 114 114 109 101 94 94 94 96 101 104 105 107 107 105 105 108 110 103 103 97 99 99 102 107 109 114 117 118 123 130 126 122 124 123 126 124 123 123 129 135 139 141 140 139 138 139 136 127 113 111 101 96 92 79 81 92 93 91 99 106 118 117 131 116 122 127 133 134 131 124 57 66 72 74 77 80
nan 150 173 179 163 173 170 169 160 137 158 125 115 105 95 93 96 93 94 101 106 110 111 107 107 104 106 106 103 102 106 106 109 112 110 113 117 123 123 125 127 132 131 123 126 135 138 141 144 147 140 145 142 142 147 130 119 115 100 92 75 78 89 82 81 88 101 106 131 113 109 117 127 127 124 113 115 119 127 135 104 95 58 48 66
nan 171 177 184 175 183 177 175 149 144 167 129 103 88 86 83 85 89 90 95 100 104 105 106 109 110 119 104 106 110 113 112 113 115 117 117 121 121 128 124 137 137 136 139 140 142 147 149 152 150 151 143 139 137 142 119 120 118 111 87 86 84 86 89 79 81 84 85 82 106 104 96 125 129 123 113 137 136 135 130 120 113 120 25 46
164 175 166 175 177 177 183 162 149 144 145 130 114 97 89 88 86 81 85 86 96 102 100 104 105 114 121 115 112 113 115 116 117 117 120 123 124 132 129 131 136 145 141 148 156 162 156 153 155 147 157 152 147 134 153 141 128 117 101 97 81 84 67 78 92 86 84 84 84 82 123 123 140 129 131 146 127 128 120 114 119 121 117 117 46
174 165 144 163 176 165 173 160 152 147 146 146 137 117 112 101 92 88 91 90 96 97 103 103 110 127 121 123 112 127 124 122 125 123 126 121 126 129 132 137 142 149 153 157 160 159 160 157 159 149 155 162 159 163 161 117 126 131 95 86 104 107 104 82 75 87 87 92 88 102 123 132 147 146 149 141 89 84 93 104 120 143 133 116 128
193 166 153 160 173 159 164 165 157 152 160 164 153 145 139 138 123 122 107 118 98 96 110 121 122 118 105 109 119 127 121 127 129 129 132 127 132 138 133 143 144 152 146 153 161 164 159 165 154 164 161 164 163 166 175 148 169 158 132 109 104 76 105 112 118 126 119 124 110 117 120 127 189 166 146 117 158 140 146 143 147 138 142 132 139
197 185 166 162 166 164 160 163 169 159 171 181 174 175 166 167 158 151 163 154 156 170 173 144 125 137 95 109 120 116 110 120 118 119 134 141 144 138 142 164 156 158 155 162 166 168 167 155 154 169 154 158 172 187 184 185 168 140 133 146 124 120 113 125 137 141 139 135 111 111 93 161 202 180 144 129 203 178 146 128 129 132 135 153 148
199 196 174 173 161 161 159 156 174 175 180 200 198 197 201 184 187 190 180 190 187 178 107 56 21 99 97 91 121 116 118 129 130 126 141 146 151 148 161 170 178 160 163 166 163 181 178 175 166 152 153 162 171 181 184 191 208 178 167 128 141 158 165 155 177 157 143 162 167 194 184 134 235 181 152 189 192 152 139 210 150 141 143 139 141
207 200 184 181 161 176 171 160 176 188 195 217 218 209 200 194 207 203 210 196 210 197 188 270 304 0 8 281 271 90 117 139 142 134 158 170 153 158 163 169 182 182 172 174 190 191 183 162 195 161 168 167 164 161 201 192 200 201 181 195 174 177 163 155 146 179 162 170 204 183 157 157 222 208 170 148 197 138 275 75 18 86 170 173 187
213 206 195 191 184 187 184 173 178 192 206 225 235 208 202 197 203 204 214 216 218 219 206 230 249 239 235 266 259 244 161 119 179 144 192 188 175 179 185 164 182 190 189 191 184 168 208 196 192 189 183 181 169 175 158 211 191 176 192 190 189 183 184 175 181 165 205 172 167 210 228 201 169 252 96 257 296 259 243 199 140 186 247 210 204
211 208 204 200 202 196 201 191 189 190 207 230 240 207 194 203 214 198 218 209 228 236 237 232 232 229 241 258 266 265 268 150 229 217 175 229 174 198 194 173 174 185 202 194 192 187 203 201 195 199 194 192 185 178 177 183 195 201 191 172 200 202 183 195 195 191 180 209 194 174 245 221 218 211 197 204 219 230 230 182 227 5 265 257 247
209 206 204 208 212 209 210 211 201 197 207 229 238 216 179 201 211 219 219 205 212 240 247 243 247 240 243 237 232 251 252 232 203 273 193 168 145 172 227 147 122 161 167 200 185 217 197 210 202 194 198 202 194 201 185 190 173 200 200 185 183 184 200 204 225 200 201 191 234 227 203 214 219 220 203 192 226 228 232 236 225 160 264 287 323
210 206 204 212 218 216 221 225 216 207 212 221 224 225 194 208 214 211 235 220 212 217 229 251 247 248 250 244 239 226 238 246 245 217 247 153 141 122 65 43 63 68 132 204 194 218 209 206 189 194 205 200 201 193 190 194 187 189 195 195 190 193 186 199 202 213 243 199 202 217 234 230 240 222 205 215 218 236 215 229 193 229 227 189 222
215 213 207 213 214 223 229 233 227 217 224 223 217 218 214 226 228 230 231 233 229 234 229 243 241 255 254 269 261 249 218 224 231 256 247 246 237 194 168 215 181 252 145 279 14 340 294 249 223 222 210 202 200 199 186 186 186 188 182 199 184 193 211 199 207 203 200 226 201 208 246 220 204 249 234 224 211 245 248 228 207 232 219 158 189